CW6353 Weather Reports


Display with metric or nautical units.
time (UTC)temp
F
wind
direction
speed
MPH
gust
MPH
rain 1hr
in
rain 24hr
in
rain mn
in
humidity
%
barometer
mb
20260510135007 63 107 3.0 4.0 0.00 0.01 0.01 90 1018.0
20260510134508 63 102 0.0 5.0 0.00 0.01 0.01 90 1018.0
20260510134005 63 59 3.0 5.0 0.00 0.01 0.01 90 1018.1
20260510133506 63 52 3.0 4.0 0.00 0.01 0.01 90 1017.9
20260510133008 63 49 0.0 3.0 0.00 0.01 0.01 90 1017.9
20260510132507 63 49 1.0 5.0 0.00 0.01 0.01 90 1018.0
20260510132008 63 49 2.0 5.0 0.00 0.01 0.01 90 1017.9
20260510131507 63 25 2.0 4.0 0.00 0.01 0.01 91 1017.8
20260510131003 63 157 0.0 2.0 0.00 0.01 0.01 91 1017.8
20260510130503 63 157 0.0 2.0 0.00 0.01 0.01 91 1017.6
20260510130012 62 169 0.0 3.0 0.00 0.01 0.01 90 1017.5
20260510125504 62 126 2.0 3.0 0.00 0.01 0.01 90 1017.4
20260510125004 62 163 0.0 2.0 0.00 0.01 0.01 90 1017.4
20260510124510 62 163 0.0 2.0 0.00 0.01 0.01 90 1017.4
20260510124006 62 84 0.0 4.0 0.00 0.01 0.01 90 1017.3
20260510123505 62 94 2.0 4.0 0.00 0.01 0.01 90 1017.3
20260510123026 62 70 2.0 3.0 0.00 0.01 0.01 90 1017.3
20260510122509 62 111 0.0 2.0 0.00 0.01 0.01 91 1017.4
20260510122012 62 111 0.0 2.0 0.00 0.01 0.01 91 1017.4
20260510121522 62 111 0.0 2.0 0.00 0.01 0.01 91 1017.3
20260510121007 62 111 1.0 2.0 0.01 0.01 0.01 91 1017.2
20260510120509 62 111 1.0 2.0 0.01 0.01 0.01 90 1017.1
20260510120004 62 159 0.0 2.0 0.01 0.01 0.01 90 1017.2
20260510115505 61 159 0.0 2.0 0.01 0.01 0.01 90 1017.2
20260510115007 61 117 1.0 2.0 0.01 0.02 0.01 90 1017.2
20260510114502 61 126 1.0 2.0 0.01 0.02 0.01 90 1017.1
20260510114005 61 84 0.0 2.0 0.01 0.02 0.01 90 1017.0
20260510113502 61 152 1.0 2.0 0.01 0.03 0.01 90 1016.8
20260510113009 61 155 1.0 2.0 0.01 0.03 0.01 90 1016.8
20260510112502 61 136 0.0 2.0 0.01 0.03 0.01 90 1016.6
20260510112002 61 136 0.0 2.0 0.01 0.04 0.01 90 1016.5
20260510111503 61 136 0.0 1.0 0.01 0.04 0.01 90 1016.4
20260510111003 61 136 1.0 2.0 0.00 0.03 0.00 90 1016.2
20260510110502 61 136 0.0 2.0 0.00 0.03 0.00 90 1016.1
20260510110013 61 136 0.0 2.0 0.00 0.03 0.00 90 1016.0
20260510105508 61 104 0.0 1.0 0.00 0.04 0.00 90 1016.0
20260510105001 61 104 0.0 2.0 0.00 0.04 0.00 90 1015.8
20260510104504 61 104 0.0 2.0 0.00 0.05 0.00 90 1015.7
20260510104002 61 104 0.0 2.0 0.00 0.05 0.00 90 1015.7
20260510103503 61 104 0.0 2.0 0.00 0.05 0.00 90 1015.5
20260510103004 61 95 1.0 2.0 0.00 0.05 0.00 90 1015.4
20260510102504 61 95 0.0 3.0 0.00 0.05 0.00 90 1015.3
20260510102002 61 95 1.0 3.0 0.00 0.05 0.00 90 1015.2
20260510101503 61 64 2.0 3.0 0.00 0.05 0.00 90 1015.1
20260510101002 61 129 0.0 2.0 0.00 0.05 0.00 90 1015.0
20260510100502 61 140 1.0 6.0 0.00 0.05 0.00 90 1014.9
20260510100005 61 104 2.0 6.0 0.00 0.06 0.00 90 1014.9
20260510095503 61 90 3.0 4.0 0.00 0.06 0.00 90 1014.8
20260510095002 61 77 2.0 3.0 0.00 0.06 0.00 90 1014.8
20260510094520 61 93 1.0 3.0 0.00 0.06 0.00 90 1014.7
20260510094004 61 93 1.0 3.0 0.00 0.06 0.00 90 1014.6
20260510093502 61 134 2.0 3.0 0.00 0.06 0.00 90 1014.6
20260510093012 61 79 1.0 3.0 0.00 0.07 0.00 90 1014.5
20260510092504 61 64 1.0 3.0 0.00 0.07 0.00 90 1014.5
20260510092002 61 82 2.0 3.0 0.00 0.08 0.00 90 1014.5
20260510091517 61 44 1.0 2.0 0.00 0.10 0.00 90 1014.6
20260510091004 61 44 0.0 2.0 0.00 0.12 0.00 90 1014.5
20260510090502 61 44 0.0 2.0 0.00 0.14 0.00 90 1014.6
20260510090006 61 44 0.0 1.0 0.00 0.16 0.00 90 1014.5
20260510085504 61 44 0.0 2.0 0.00 0.17 0.00 90 1014.5
20260510085002 62 44 0.0 2.0 0.00 0.18 0.00 91 1014.4
20260510084503 62 44 0.0 2.0 0.00 0.21 0.00 91 1014.3
20260510084003 61 44 0.0 3.0 0.00 0.22 0.00 91 1014.2
20260510083502 61 44 1.0 3.0 0.00 0.23 0.00 91 1014.2
20260510083005 61 9 1.0 3.0 0.00 0.23 0.00 91 1014.2
20260510082503 61 11 1.0 4.0 0.00 0.24 0.00 91 1014.1
20260510082003 60 45 2.0 4.0 0.00 0.24 0.00 91 1014.1
20260510081504 60 42 1.0 3.0 0.00 0.24 0.00 91 1014.0
20260510081004 59 40 1.0 3.0 0.00 0.24 0.00 90 1013.9
20260510080504 59 24 0.0 0.0 0.00 0.24 0.00 90 1013.9
20260510080004 59 17 0.0 0.0 0.00 0.24 0.00 90 1013.9
20260510075504 59 17 0.0 0.0 0.00 0.24 0.00 89 1013.9
20260510075002 59 17 0.0 0.0 0.00 0.24 0.00 89 1013.7
20260510074505 59 14 0.0 0.0 0.00 0.24 0.00 89 1013.7
20260510074004 59 10 0.0 0.0 0.00 0.24 0.00 89 1013.6
20260510073503 59 10 0.0 0.0 0.00 0.24 0.00 89 1013.7
20260510073008 59 10 0.0 0.0 0.00 0.24 0.00 89 1013.7
20260510072503 59 10 0.0 0.0 0.00 0.24 0.00 89 1013.8
20260510072003 59 10 0.0 0.0 0.00 0.24 0.00 89 1013.9
20260510071511 60 10 0.0 0.0 0.00 0.24 0.00 89 1014.0
20260510071004 60 10 0.0 0.0 0.00 0.24 0.00 89 1014.1
20260510070503 60 10 0.0 0.0 0.00 0.24 0.00 89 1014.1
20260510070022 60 10 0.0 1.0 0.00 0.24 0.00 89 1014.0
20260510065504 60 10 0.0 1.0 0.00 0.24 0.00 89 1014.0
20260510065004 60 10 0.0 2.0 0.00 0.24 0.00 89 1013.9
20260510064510 60 10 1.0 2.0 0.00 0.24 0.00 89 1013.9
20260510064004 60 10 0.0 2.0 0.00 0.24 0.00 89 1013.9
20260510063508 60 10 1.0 1.0 0.00 0.24 0.00 89 1014.0
20260510063004 60 10 0.0 0.0 0.00 0.24 0.00 89 1014.0
20260510062503 60 10 0.0 0.0 0.00 0.24 0.00 89 1014.1
20260510062005 60 10 0.0 0.0 0.00 0.24 0.00 89 1014.1
20260510061507 60 10 0.0 0.0 0.00 0.24 0.00 89 1014.1
20260510061007 60 10 0.0 0.0 0.00 0.24 0.00 89 1014.2
20260510060504 60 10 0.0 0.0 0.00 0.24 0.00 89 1014.1
20260510060013 60 10 0.0 0.0 0.00 0.24 0.00 89 1014.3
20260510055505 60 10 0.0 0.0 0.00 0.24 0.00 89 1014.4
20260510055004 60 10 0.0 1.0 0.00 0.24 0.00 89 1014.4
20260510054516 60 10 0.0 1.0 0.00 0.24 0.00 89 1014.4
20260510054005 60 10 0.0 2.0 0.00 0.24 0.00 89 1014.5
20260510053504 60 10 0.0 2.0 0.00 0.24 0.00 89 1014.6
20260510053042 60 10 0.0 0.0 0.00 0.24 0.00 89 1014.7
20260510052505 60 10 0.0 0.0 0.00 0.24 0.00 88 1014.7
20260510052006 60 10 0.0 1.0 0.00 0.24 0.00 88 1014.7
20260510051506 60 10 0.0 1.0 0.00 0.24 0.00 88 1014.7
20260510051004 60 10 0.0 0.0 0.00 0.24 0.00 88 1014.8
20260510050503 60 10 0.0 0.0 0.00 0.24 0.00 89 1014.6
20260510050013 60 10 0.0 0.0 0.00 0.24 0.00 89 1014.6
20260510045504 60 10 0.0 2.0 0.00 0.24 0.24 88 1014.5
20260510045010 60 10 0.0 2.0 0.00 0.24 0.24 88 1014.6
20260510044511 60 336 1.0 2.0 0.00 0.24 0.24 88 1014.6
20260510044008 60 216 0.0 2.0 0.00 0.24 0.24 88 1014.6
20260510043501 61 216 0.0 2.0 0.00 0.24 0.24 88 1014.6
20260510043006 61 216 0.0 0.0 0.00 0.24 0.24 88 1014.6
20260510042505 61 216 0.0 0.0 0.00 0.24 0.24 88 1014.6
20260510042001 61 216 0.0 0.0 0.00 0.24 0.24 88 1014.5
20260510041508 61 216 0.0 0.0 0.00 0.24 0.24 88 1014.5
20260510041003 61 216 0.0 1.0 0.00 0.24 0.24 88 1014.6
20260510040502 62 216 0.0 2.0 0.00 0.24 0.24 88 1014.6
20260510040004 62 216 1.0 2.0 0.00 0.24 0.24 88 1014.4
20260510035502 62 216 0.0 0.0 0.00 0.24 0.24 88 1014.6
20260510035004 62 216 0.0 1.0 0.00 0.24 0.24 88 1014.7
20260510034503 62 216 0.0 1.0 0.00 0.24 0.24 87 1014.7
20260510034003 62 216 0.0 0.0 0.00 0.24 0.24 87 1014.9
20260510033502 62 216 0.0 0.0 0.00 0.24 0.24 87 1014.8
20260510033004 62 216 0.0 0.0 0.00 0.24 0.24 87 1014.8
20260510032504 62 216 0.0 0.0 0.00 0.24 0.24 87 1014.9
20260510032004 63 216 0.0 0.0 0.00 0.24 0.24 87 1015.1
20260510031509 63 216 0.0 0.0 0.00 0.24 0.24 88 1015.0
20260510031004 63 216 0.0 2.0 0.00 0.24 0.24 87 1014.9
20260510030504 63 216 0.0 2.0 0.00 0.24 0.24 87 1014.7
20260510030003 63 216 0.0 2.0 0.00 0.24 0.24 87 1014.7
20260510025503 63 216 0.0 0.0 0.00 0.24 0.24 87 1014.7
20260510025004 63 216 0.0 2.0 0.00 0.24 0.24 86 1014.8
20260510024514 63 216 0.0 2.0 0.00 0.24 0.24 87 1014.7
20260510024006 63 216 0.0 2.0 0.00 0.24 0.24 86 1014.6
20260510023502 64 216 0.0 2.0 0.00 0.24 0.24 86 1014.8
20260510023014 64 216 0.0 2.0 0.00 0.24 0.24 86 1014.5
20260510022502 64 216 0.0 2.0 0.00 0.24 0.24 86 1014.3
20260510022002 64 207 0.0 2.0 0.00 0.24 0.24 86 1014.3
20260510021512 64 203 1.0 2.0 0.00 0.24 0.24 86 1014.2
20260510021004 65 235 1.0 2.0 0.00 0.24 0.24 87 1014.3
20260510020503 65 262 1.0 3.0 0.00 0.24 0.24 87 1014.3
20260510020004 65 229 1.0 3.0 0.00 0.24 0.24 86 1014.2
20260510015505 65 202 0.0 2.0 0.00 0.24 0.24 85 1014.0
20260510015002 65 199 0.0 2.0 0.00 0.24 0.24 86 1014.0
20260510014510 65 245 0.0 2.0 0.00 0.24 0.24 86 1014.1
20260510014003 65 233 0.0 3.0 0.00 0.24 0.24 85 1014.0
20260510013506 65 207 1.0 4.0 0.00 0.24 0.24 85 1013.9
20260510013006 66 215 1.0 7.0 0.00 0.24 0.24 85 1013.7
20260510012506 66 215 2.0 7.0 0.00 0.24 0.24 85 1013.7
20260510012003 66 212 3.0 6.0 0.00 0.24 0.24 85 1013.6
20260510011504 66 215 2.0 6.0 0.00 0.24 0.24 85 1013.3
20260510011003 66 213 1.0 7.0 0.00 0.24 0.24 85 1013.5
20260510010503 66 206 4.0 7.0 0.00 0.24 0.24 84 1013.6
20260510010004 67 230 3.0 6.0 0.00 0.24 0.24 84 1013.4
20260510005504 67 221 2.0 9.0 0.00 0.24 0.24 84 1013.1
20260510005004 67 186 3.0 9.0 0.00 0.24 0.24 84 1013.0
20260510004506 67 204 3.0 7.0 0.00 0.24 0.24 84 1013.1
20260510004003 67 174 2.0 7.0 0.00 0.24 0.24 84 1013.1
20260510003503 67 166 3.0 7.0 0.00 0.24 0.24 83 1013.1
20260510003009 68 219 3.0 7.0 0.00 0.24 0.24 83 1013.0
20260510002503 68 205 4.0 7.0 0.00 0.24 0.24 83 1013.0
20260510002004 68 229 1.0 5.0 0.00 0.24 0.24 83 1013.0
20260510001513 68 220 3.0 5.0 0.00 0.24 0.24 83 1013.0
20260510001004 68 245 0.0 3.0 0.00 0.24 0.24 82 1013.1
20260510000508 68 254 1.0 5.0 0.00 0.24 0.24 82 1013.1
20260510000010 68 242 1.0 5.0 0.00 0.24 0.24 82 1012.9
20260509235505 68 252 2.0 4.0 0.00 0.24 0.24 82 1013.0
20260509235005 69 253 1.0 4.0 0.00 0.24 0.24 81 1012.8
20260509234504 69 211 1.0 3.0 0.00 0.24 0.24 81 1012.6
20260509234006 69 209 1.0 3.0 0.00 0.24 0.24 81 1012.6
20260509233503 69 165 0.0 2.0 0.00 0.24 0.24 82 1012.4
20260509233004 69 165 0.0 2.0 0.00 0.24 0.24 81 1012.4
20260509232503 69 165 0.0 2.0 0.00 0.24 0.24 80 1012.4
20260509232007 69 165 0.0 2.0 0.00 0.24 0.24 80 1012.3
20260509231505 69 165 0.0 2.0 0.00 0.24 0.24 79 1012.4
20260509231011 69 198 1.0 2.0 0.00 0.24 0.24 79 1012.4
20260509230503 70 178 0.0 2.0 0.00 0.24 0.24 78 1012.5
20260509230018 70 163 1.0 2.0 0.00 0.24 0.24 78 1012.3
20260509225507 70 175 1.0 4.0 0.00 0.24 0.24 78 1012.2
20260509225004 70 190 1.0 5.0 0.00 0.24 0.24 78 1012.1
20260509224522 70 173 1.0 5.0 0.00 0.24 0.24 77 1012.1
20260509224004 70 182 1.0 4.0 0.00 0.24 0.24 77 1011.9
20260509223504 70 165 1.0 2.0 0.00 0.24 0.24 77 1012.0
20260509223004 71 178 0.0 2.0 0.00 0.24 0.24 77 1012.0
20260509222503 70 188 0.0 3.0 0.00 0.24 0.24 76 1011.9
20260509222006 70 172 1.0 4.0 0.00 0.24 0.24 76 1011.9
20260509221508 70 180 2.0 4.0 0.00 0.24 0.24 76 1011.8
20260509221005 70 191 1.0 2.0 0.00 0.24 0.24 76 1011.9
20260509220501 70 193 1.0 2.0 0.00 0.24 0.24 76 1011.8
20260509220006 71 181 0.0 2.0 0.00 0.24 0.24 76 1011.7
20260509215503 71 163 1.0 3.0 0.00 0.24 0.24 76 1011.7
20260509215002 71 166 0.0 3.0 0.00 0.24 0.24 76 1011.7
20260509214502 71 167 1.0 2.0 0.00 0.24 0.24 76 1011.7
20260509214003 71 181 1.0 2.0 0.00 0.24 0.24 76 1011.7
20260509213503 71 179 0.0 4.0 0.00 0.24 0.24 75 1011.8
20260509213016 71 180 1.0 4.0 0.00 0.24 0.24 75 1011.7
20260509212508 71 155 1.0 2.0 0.00 0.24 0.24 76 1011.7
20260509212002 71 98 0.0 2.0 0.00 0.24 0.24 75 1011.6
20260509211508 71 98 0.0 2.0 0.00 0.24 0.24 74 1011.8
20260509211001 71 98 0.0 2.0 0.00 0.24 0.24 75 1011.6
20260509210503 71 98 1.0 2.0 0.00 0.24 0.24 75 1011.4
20260509210003 71 274 0.0 2.0 0.00 0.24 0.24 74 1011.5
20260509205502 71 274 1.0 2.0 0.00 0.24 0.24 73 1011.5
20260509205002 71 264 1.0 2.0 0.00 0.24 0.24 73 1011.6
20260509204505 71 140 0.0 2.0 0.00 0.24 0.24 73 1011.7
20260509204002 71 140 0.0 2.0 0.00 0.24 0.24 73 1011.6
20260509203502 71 234 1.0 3.0 0.00 0.24 0.24 73 1011.6
20260509203004 71 234 1.0 4.0 0.00 0.24 0.24 73 1011.8
20260509202502 71 225 1.0 4.0 0.00 0.24 0.24 72 1011.8
20260509202004 71 144 0.0 2.0 0.00 0.24 0.24 74 1011.7
20260509201503 72 133 0.0 2.0 0.00 0.24 0.24 72 1011.7
20260509201006 72 133 1.0 2.0 0.00 0.24 0.24 74 1011.9
20260509200506 71 146 1.0 2.0 0.00 0.24 0.24 73 1011.9
20260509200003 71 122 1.0 3.0 0.00 0.24 0.24 73 1011.8
20260509195505 71 122 2.0 3.0 0.00 0.24 0.24 73 1011.7
20260509195004 71 165 0.0 4.0 0.00 0.24 0.24 74 1012.0
20260509194503 71 142 2.0 4.0 0.00 0.24 0.24 74 1011.8
20260509194004 71 170 1.0 2.0 0.00 0.24 0.24 72 1011.9
20260509193505 71 85 1.0 3.0 0.00 0.24 0.24 73 1012.0
20260509193003 71 79 1.0 3.0 0.00 0.24 0.24 73 1012.1
20260509192504 70 107 1.0 2.0 0.00 0.24 0.24 74 1012.0
20260509192002 70 180 0.0 2.0 0.00 0.24 0.24 73 1012.4
20260509191506 70 250 0.0 3.0 0.00 0.24 0.24 74 1012.4
20260509191006 70 238 2.0 3.0 0.00 0.24 0.24 73 1012.2
20260509190507 70 312 0.0 2.0 0.00 0.24 0.24 74 1012.0
20260509190006 70 311 1.0 2.0 0.00 0.24 0.24 75 1012.4
20260509185504 70 27 1.0 2.0 0.00 0.24 0.24 77 1012.3
20260509185004 69 360 1.0 3.0 0.00 0.24 0.24 77 1012.5
20260509184517 69 286 1.0 4.0 0.00 0.24 0.24 77 1012.6
20260509184002 69 275 2.0 4.0 0.00 0.24 0.24 77 1012.7
20260509183503 69 246 2.0 4.0 0.00 0.24 0.24 76 1012.7
20260509183004 69 301 2.0 3.0 0.00 0.24 0.24 78 1012.9
20260509182504 69 232 1.0 3.0 0.00 0.24 0.24 79 1012.9
20260509182004 69 177 1.0 3.0 0.00 0.24 0.24 79 1012.9
20260509181502 68 340 0.0 3.0 0.00 0.24 0.24 80 1012.9
20260509181004 68 309 2.0 8.0 0.00 0.24 0.24 79 1012.8
20260509180504 68 30 2.0 8.0 0.00 0.24 0.24 80 1012.7
20260509180004 68 311 3.0 7.0 0.00 0.24 0.24 81 1012.7
20260509175506 68 309 3.0 8.0 0.00 0.24 0.24 81 1012.7
20260509175004 67 5 3.0 8.0 0.00 0.24 0.24 82 1012.6
20260509174520 67 28 2.0 7.0 0.00 0.24 0.24 82 1012.7
20260509174004 67 319 4.0 8.0 0.00 0.24 0.24 82 1012.9
20260509173503 66 22 3.0 8.0 0.00 0.24 0.24 83 1013.0
20260509173017 66 325 4.0 8.0 0.00 0.24 0.24 83 1013.0
20260509172504 66 319 4.0 7.0 0.00 0.24 0.24 83 1013.0
20260509172003 66 285 4.0 9.0 0.00 0.24 0.24 83 1013.0
20260509171504 66 300 5.0 9.0 0.00 0.24 0.24 83 1013.2
20260509171003 66 275 4.0 8.0 0.00 0.24 0.24 84 1013.2
20260509170504 66 337 3.0 8.0 0.00 0.24 0.24 84 1013.3
20260509170009 66 329 2.0 8.0 0.00 0.24 0.24 84 1013.2
20260509165503 66 276 4.0 9.0 0.00 0.24 0.24 85 1013.3
20260509165003 66 281 2.0 9.0 0.00 0.24 0.24 85 1013.3
20260509164510 66 300 3.0 8.0 0.00 0.24 0.24 85 1013.3
20260509164003 65 267 6.0 8.0 0.00 0.24 0.24 85 1013.2
20260509163507 65 269 6.0 8.0 0.00 0.24 0.24 86 1013.3
20260509163011 65 241 2.0 8.0 0.00 0.24 0.24 87 1013.2
20260509162510 65 277 5.0 8.0 0.00 0.24 0.24 87 1013.3
20260509162002 64 286 3.0 6.0 0.00 0.24 0.24 88 1013.3
20260509161508 64 292 2.0 7.0 0.00 0.24 0.24 87 1013.4
20260509161008 63 264 3.0 7.0 0.00 0.24 0.24 88 1013.4
20260509160503 63 281 5.0 9.0 0.00 0.24 0.24 88 1013.3
20260509160003 63 269 6.0 9.0 0.00 0.24 0.24 88 1013.3
20260509155502 63 250 5.0 7.0 0.00 0.24 0.24 88 1013.3
20260509155003 63 248 3.0 7.0 0.00 0.24 0.24 89 1013.2
20260509154508 63 264 4.0 7.0 0.00 0.24 0.24 89 1013.3
20260509154004 62 277 2.0 5.0 0.00 0.24 0.24 89 1013.4
20260509153504 62 250 3.0 8.0 0.00 0.24 0.24 89 1013.2
20260509153017 62 249 4.0 8.0 0.00 0.24 0.24 89 1013.2
20260509152503 62 257 4.0 8.0 0.00 0.24 0.24 89 1013.4
20260509152007 62 221 3.0 6.0 0.00 0.24 0.24 89 1013.4
20260509151516 62 232 3.0 8.0 0.00 0.24 0.24 90 1013.2
20260509151003 62 261 3.0 8.0 0.00 0.24 0.24 90 1013.6
20260509150510 62 263 2.0 8.0 0.00 0.24 0.24 90 1013.6
20260509150014 62 253 4.0 8.0 0.00 0.24 0.24 90 1013.6
20260509145504 62 205 5.0 9.0 0.00 0.24 0.24 90 1013.2
20260509145004 62 204 1.0 9.0 0.00 0.24 0.24 90 1013.0
20260509144507 62 248 5.0 9.0 0.00 0.24 0.24 90 1013.2
20260509144003 62 252 5.0 11.0 0.00 0.24 0.24 90 1013.5
20260509143501 62 257 6.0 11.0 0.00 0.24 0.24 90 1013.0
20260509143006 62 229 3.0 11.0 0.00 0.24 0.24 90 1013.0
20260509142501 62 237 4.0 11.0 0.00 0.24 0.24 90 1013.2
20260509142003 62 222 5.0 11.0 0.00 0.24 0.24 90 1013.3
20260509141502 62 247 6.0 12.0 0.00 0.24 0.24 90 1013.5
20260509141004 62 265 6.0 12.0 0.00 0.24 0.24 90 1013.5
20260509140501 62 214 5.0 12.0 0.00 0.24 0.24 90 1013.3
20260509140008 62 241 7.0 12.0 0.00 0.24 0.24 90 1013.9
20260509135502 62 272 6.0 10.0 0.00 0.24 0.24 90 1014.0